Location: Oroua River
(40.4333°S, 175.4333°E)
Time: 14:04:37
(UTC+00:00)

USA 229 - Pass Details

Date: 03 February 2023
Orbit: 915 x 1297 km, 63.4° (Epoch: 16 March)

Event Time Altitude Azimuth Distance (km) Brightness Sun altitude
Rises 13:54:54 0° 218° (SW) 3,842 7.0 -29.9°
Reaches altitude 10° 13:57:40 10° 221° (SW) 2,829 6.2 -29.7°
Enters shadow 14:02:38 48° 250° (WSW) 1,266 3.9 -29.3°
